Location: Saint-Est�ve
(44.0389°N, 5.2171°E)
Time: 17:53:09
(UTC+00:00)

Daily predictions for brighter satellites

Satellite Brightness Start Highest point End
(mag) Time Altitude Azimuth Time Altitude Azimuth Time Altitude Azimuth
VEP-3 4.4 19:56:07 10° SSW 19:58:54 13° S 20:02:06 10° SE
Cosmos 2322 Rocket 2.2 19:54:47 10° SSW 20:00:24 89° ESE 20:06:03 10° NNE
SPOT 3 Rocket 3.7 19:57:09 10° SSE 20:02:21 81° WSW 20:07:37 10° NNW
NOSS 7 (D) 4.0 19:59:46 10° SSW 20:02:35 49° SE 20:05:14 10° NE
Cosmos 2237 4.4 19:57:37 10° S 20:03:10 54° ESE 20:08:45 10° NE
Cosmos 1455 2.6 20:09:06 10° N 20:12:50 48° ENE 20:16:34 10° SSE
Cosmos 1461 3.8 20:08:19 10° NW 20:12:56 53° WSW 20:17:32 10° SSE
Cosmos 1825 Rocket 4.3 20:11:11 10° SSE 20:15:11 35° E 20:19:15 10° NNE
ATLAS CENTAUR R/B 3.5 20:16:27 10° N 20:18:37 15° NE 20:20:44 10° ENE
Cosmos 1703 3.8 20:16:09 10° SSE 20:19:45 39° E 20:23:25 10° NNE
COSMOS 2428 3.9 20:16:18 10° SSE 20:20:35 23° E 20:24:52 10° NE
Geosat 4.5 20:15:50 10° SSE 20:20:46 59° WSW 20:25:46 10° NW
Cosmos 1812 Rocket 3.5 20:18:46 10° N 20:23:08 89° W 20:27:27 10° S
Cosmos 2322 4.2 20:18:59 10° S 20:24:16 41° ESE 20:29:36 10° NE
Cosmos 1844 4.2 20:18:53 10° NNW 20:24:30 49° ENE 20:29:32 12° SE
Delta 2 Rocket 4.3 20:23:57 10° SW 20:26:30 20° S 20:28:09 14° SE
Cosmos 1602 Rocket 4.0 20:24:09 10° SSW 20:28:31 65° W 20:32:58 10° N
Cosmos 1709 Rocket 4.3 20:25:14 10° SSE 20:31:15 50° E 20:37:20 10° NNE
Cosmos 2263 Rocket 4.0 20:28:05 10° NW 20:32:39 27° WSW 20:37:13 10° SSW
MetOp-B 4.2 20:28:09 10° SSE 20:33:30 87° ENE 20:38:54 10° NNW
Nadezhda 1 Rocket 4.1 20:27:22 10° N 20:33:49 89° W 20:40:12 10° S
Atlas Centaur 2 3.6 20:29:52 10° SW 20:34:30 24° S 20:38:47 14° SE
Cosmos 2237 Rocket 4.1 20:33:31 10° ESE 20:34:38 11° E 20:35:43 10° E
Terra 3.3 20:31:40 11° ESE 20:35:07 24° ENE 20:38:55 10° NNE
Cosmos 2333 4.4 20:30:39 10° S 20:36:01 48° ESE 20:41:29 10° NE
Cosmos 2219 Rocket 2.9 20:31:33 10° SSE 20:36:30 33° ESE 20:41:28 10° NE
Cosmos 2360 Rocket 2.3 20:32:37 10° SSW 20:38:16 85° WNW 20:43:58 10° NNE
IGS 5A 3.5 20:35:34 13° SSE 20:39:13 70° ENE 20:43:22 10° N
IRIS 4.3 20:39:03 10° WSW 20:42:01 39° S 20:43:18 21° ESE
Cosmos 2333 Rocket 2.6 20:40:53 10° S 20:46:13 44° ESE 20:51:36 10° NE
ATLAS 2AS CENTAUR R/B 4.4 20:44:36 10° NNW 20:51:02 28° NNE 20:57:03 10° E
Resurs 01 Rocket 3.0 20:47:02 10° SSW 20:51:05 36° W 20:55:11 10° NNW
Cosmos 1315 Rocket 4.0 20:48:25 10° N 20:52:02 29° ENE 20:54:13 19° ESE
Cosmos 1818 4.0 20:48:13 10° SW 20:53:38 68° NW 20:59:05 10° NNE
Cosmos-2242 3.0 20:51:18 10° N 20:55:40 90° W 20:59:05 16° S
Cosmos 773 Rocket 4.0 20:51:03 10° S 20:56:17 67° ESE 21:01:33 10° NNE
SL-16 R/B 4.3 20:52:34 10° WSW 20:57:30 30° NW 21:02:29 10° N
Cosmos 2221 4.0 20:56:58 10° NNE 21:00:29 23° ENE 21:02:29 17° ESE
ERS-1 Rocket 3.1 20:56:51 19° SSE 21:00:29 65° ENE 21:05:30 10° N
GEOS 3 Rocket 3.8 20:59:11 10° NE 21:04:36 81° NW 21:09:59 10° SW
USA 215 3.2 21:01:27 10° NE 21:08:00 68° SE 21:14:30 10° SW
Cosmos 2278 Rocket 3.4 21:04:17 10° N 21:09:19 31° NE 21:13:09 15° ESE
ATLAS 5 CENTAUR R/B 2.5 21:06:24 10° SW 21:10:26 50° NW 21:14:58 10° NNE
USA 245 4.0 21:08:35 16° SSW 21:10:53 42° W 21:14:41 10° NNW
Meteor 1-11 4.2 21:05:31 11° S 21:10:54 79° E 21:16:37 10° NNE
Cosmos 1844 Rocket 3.1 21:08:50 10° NNW 21:14:17 58° WSW 21:18:16 19° S
Cosmos 1400 Rocket 3.4 21:11:05 10° NNW 21:14:58 51° W 21:17:41 18° SSW
SPOT 5 2.9 21:13:56 22° SSE 21:17:12 80° ENE 21:22:03 10° N
Lacrosse 5 rocket 4.3 21:17:33 10° NW 21:19:44 14° N 21:21:53 10° NNE
Spot 2 Rocket 4.4 21:16:44 12° S 21:21:07 44° W 21:26:01 10° NNW
USA 81 4.0 21:19:52 18° S 21:23:51 86° E 21:29:10 10° N
Cosmos 2058 4.1 21:24:59 24° ESE 21:25:50 26° E 21:29:18 10° NNE
BREEZE M DEB (TANK) 1.5 21:25:24 10° WNW 21:27:39 69° SW 21:27:39 69° SW
Cosmos 2181 Rocket 4.0 21:23:37 10° N 21:29:59 85° W 21:34:15 22° S
Cosmos 2074 Rocket 4.1 21:29:16 24° SSE 21:33:00 59° E 21:39:06 10° NNE
SPOT 1/Viking Rocket 4.4 21:31:52 16° SSW 21:35:44 43° W 21:40:39 10° NNW
Cosmos 1076 Rocket 4.4 21:36:08 28° ESE 21:37:00 31° E 21:40:48 10° NNE
Cosmos 1953 Rocket 4.5 21:33:11 11° SSW 21:37:12 45° WNW 21:41:22 10° N
Cosmos 1680 Rocket 4.3 21:35:41 28° SE 21:37:13 33° E 21:41:57 10° NE
USA 267 3.7 21:34:04 14° ESE 21:39:44 59° NNE 21:46:10 10° NW
Cosmos 2084 3.5 21:42:00 10° NW 21:46:29 85° NE 21:48:05 39° SE
Cosmos 1842 Rocket 3.4 21:43:06 10° N 21:47:28 85° E 21:49:02 39° SSE
OAO 2 Rocket 4.2 21:43:40 10° WSW 21:48:18 31° S 21:48:29 31° S
JB-3 4.2 21:45:12 10° NNE 21:49:02 66° ESE 21:49:57 47° SSE
MTI 3.4 21:49:53 10° NNE 21:52:59 84° ESE 21:53:10 77° SSE
Cosmos 923 Rocket 4.0 21:52:20 33° S 21:54:37 62° ESE 21:59:51 10° NNE
ATLAS CENTAUR R/B 1.0 21:54:16 10° NW 21:57:55 66° WSW 21:58:26 56° S
Cosmos 1825 3.7 21:58:09 23° E 21:58:09 23° E 22:01:01 10° NE
Cosmos 1980 3.7 21:56:55 32° S 21:59:25 59° ESE 22:04:58 10° NNE
ALOS 2 4.5 21:58:03 16° E 21:59:35 19° ENE 22:02:40 10° NNE
Cosmos 967 Rocket 4.4 21:55:33 12° SSW 22:01:36 82° ESE 22:08:06 10° NE
COSMOS 2428 3.3 21:58:50 10° SW 22:04:24 56° WNW 22:10:00 10° NNE
Cosmos 1869 3.4 22:04:27 10° NNW 22:08:24 67° W 22:09:23 47° SSW
NOSS 0 Rocket 3.8 22:07:31 22° SSW 22:11:44 87° ESE 22:17:57 10° NNE
Terra 2.7 22:10:34 27° SSW 22:12:38 41° W 22:17:08 10° NNW
Cosmos 1610 Rocket 4.5 22:11:20 33° S 22:14:22 79° E 22:20:45 10° N
NOSS 3-4 (A) 4.1 22:08:13 10° NNW 22:15:09 64° NE 22:19:47 25° ESE
NOSS 3-4 (C) 4.1 22:08:19 10° NNW 22:15:15 64° NE 22:19:55 25° ESE
Cosmos 2237 Rocket 2.1 22:14:58 33° SSW 22:17:39 78° ESE 22:23:23 10° NNE
Genesis I 3.2 22:18:36 59° ESE 22:18:36 59° ESE 22:22:16 10° NE
Cosmos 2344 3.6 22:16:02 27° S 22:20:14 59° ESE 22:27:53 10° NE
Cosmos 2219 Rocket 3.5 22:15:10 10° SW 22:20:21 38° WNW 22:25:35 10° NNE
Elektron 1 4.1 22:21:21 56° SW 22:21:59 84° NW 22:26:49 10° NE
BREEZE-M R/B 4.1 22:13:25 10° WNW 22:22:14 46° SW 22:23:36 38° S
Atlas Centaur 2 4.0 22:17:58 10° WSW 22:21:20 20° SSW 22:21:20 20° SSW
DELTA 2 R/B (1) 3.7 22:23:29 10° WSW 22:28:51 48° SSE 22:30:03 41° SE
Cosmos 2333 Rocket 3.9 22:25:35 10° WSW 22:30:37 32° NW 22:35:43 10° N
Thor Agena Rocket 3.4 22:26:39 10° NNE 22:31:48 81° ESE 22:33:18 47° S
Cosmos 2221 3.8 22:34:11 10° NNW 22:38:06 32° W 22:39:20 27° WSW
BREEZE-M DEB (TANK) 2.6 22:37:31 10° WNW 22:41:05 40° N 22:41:22 38° NNE
Iridium 2 3.6 22:38:29 10° N 22:42:19 77° W 22:42:26 75° WSW
Cosmos 1892 3.8 22:41:59 32° WSW 22:42:51 36° WNW 22:46:23 10° N
Cosmos 1371 Rocket 4.0 22:37:33 10° NNW 22:42:51 82° ENE 22:44:15 50° SSE
ATLAS 2AS CENTAUR R/B 2.8 22:35:35 10° NW 22:43:10 83° NE 22:46:25 36° SE
Cosmos 1766 Rocket 3.9 22:44:24 47° ESE 22:44:36 47° E 22:48:50 10° NNE
EO 1 Del DPAF 3.1 22:41:03 10° N 22:44:50 78° WNW 22:44:59 75° WSW
MOS 1-B Rocket 4.3 22:39:06 10° NNE 22:46:50 89° ESE 22:49:57 36° SSW
Okean 3 Rocket 3.6 22:47:03 57° ESE 22:47:24 60° E 22:51:47 10° NNE
Aureole 2 Rocket 3.7 22:47:07 10° N 22:48:59 30° NNE 22:48:59 30° NNE
Cosmos 1328 Rocket 4.3 22:45:54 10° N 22:49:58 39° ENE 22:50:25 38° E
Cosmos 2112 Rocket 4.3 22:48:24 34° SW 22:50:41 67° WNW 22:56:03 10° NNE
USA 215 4.3 22:44:37 10° NE 22:50:50 47° NNW 22:57:01 10° W
Cosmos 1606 3.1 22:48:32 10° N 22:52:19 51° ENE 22:52:19 51° ENE
Cosmos 2218 Rocket 4.3 22:50:54 39° SE 22:52:49 53° E 22:58:56 10° NNE
Cosmos 2278 Rocket 2.8 22:48:11 10° NW 22:53:32 44° WSW 22:54:59 36° SW
Cosmos 158 Rocket 4.3 22:52:57 32° SW 22:54:56 54° WNW 22:59:46 10° NNE
Cosmos 2297 4.1 22:49:26 10° NNW 22:55:07 58° ENE 22:57:11 37° ESE
Cosmos 2366 rocket 4.3 22:56:35 41° SE 22:58:30 55° E 23:04:41 10° NNE
Cosmos 1420 Rocket 4.5 22:53:51 10° NNW 22:59:01 53° ENE 23:00:36 39° ESE
Spot 4 4.1 22:59:07 49° SW 22:59:59 57° W 23:04:42 10° NNW
Lacrosse 5 rocket 4.1 22:57:40 10° NNW 23:00:19 17° NNE 23:02:54 10° ENE
Cosmos 1943 Rocket 3.5 22:56:29 10° N 23:01:37 33° NE 23:04:41 20° ESE
SL-16 R/B 2.2 23:00:46 51° SSE 23:02:00 65° ESE 23:07:38 10° NNE
Cosmos 1408 3.8 23:03:24 31° W 23:03:41 32° WNW 23:06:56 10° NNW
Cosmos 2056 Rocket 3.6 23:01:23 10° NNW 23:06:48 74° WSW 23:07:58 54° S
Cosmos 2341 Rocket 4.1 23:11:47 40° SSW 23:14:07 69° W 23:20:21 10° N
Cosmos 332 Rocket 4.3 23:15:42 10° N 23:20:23 50° ENE 23:21:28 42° ESE
Meteor 2-3 Rocket 3.7 23:21:02 52° SSE 23:22:17 69° E 23:27:57 10° NNE
USA 267 3.5 23:21:25 42° SSW 23:22:50 48° SW 23:29:09 10° WNW
IRIDIUM 104 4.3 23:23:26 58° SSW 23:24:29 82° W 23:29:45 10° N
Cosmos 2151 3.9 23:23:52 36° W 23:24:34 39° WNW 23:28:37 10° N
Helios 1A 3.1 23:24:53 62° E 23:25:07 63° ENE 23:29:15 10° N
Cosmos 405 4.2 23:26:10 10° N 23:29:08 35° ENE 23:29:08 35° ENE
SL-8 Rocket 4.1 23:30:58 41° SW 23:33:05 66° W 23:39:14 10° N
Cosmos 1825 3.9 23:32:56 23° W 23:33:23 24° WNW 23:36:30 10° NNW
IRIDIUM 114 4.4 23:32:35 53° SW 23:33:40 68° W 23:38:53 10° N
Meteor 1-26 Rocket 4.3 23:27:39 10° N 23:33:42 82° E 23:35:20 51° SSE
Cosmos 1452 Rocket 3.6 23:28:35 10° NNW 23:33:52 71° ENE 23:35:06 51° SE
Cosmos 1340 2.8 23:34:23 68° NNW 23:34:23 68° NNW 23:37:49 10° N
CZ-4C R/B 4.0 23:27:49 10° NNW 23:34:25 41° NE 23:41:59 10° ESE
ALOS 2 3.1 23:35:27 45° WSW 23:35:34 45° W 23:39:49 10° NNW
COSMOS 2455 3.2 23:29:38 10° NNW 23:35:38 61° NE 23:38:24 32° ESE
Cosmos 1408 Rocket 3.4 23:35:56 77° SW 23:36:10 81° W 23:40:35 10° N
PSLV R/B 4.4 23:32:45 10° NNE 23:36:34 36° E 23:36:34 36° E
Cosmos 1933 3.6 23:34:27 10° NNW 23:38:13 58° W 23:38:13 58° W
Meteor 2-12 Rocket 4.5 23:37:27 45° SSW 23:39:23 72° W 23:45:33 10° N
Cosmos 1151 Rocket 3.3 23:35:44 10° NNW 23:39:58 55° W 23:40:03 55° W
Cosmos 44 3.8 23:43:38 37° W 23:44:47 47° NW 23:49:05 10° NNE
Cosmos 1500 Rocket 3.7 23:44:49 60° ESE 23:44:58 61° E 23:49:19 10° NNE
Cosmos 1727 Rocket 3.9 23:39:54 10° N 23:46:10 89° E 23:48:04 48° S
Cosmos 2369 Rocket 2.8 23:40:51 10° NNW 23:46:17 50° ENE 23:48:49 29° ESE
Resurs 1-4 Rocket 4.4 23:45:13 10° ENE 23:46:53 11° E 23:48:32 10° ESE
GP-B 4.0 23:44:11 10° NNW 23:48:19 38° W 23:48:50 37° W
SL-08 R/B 4.5 23:46:43 47° S 23:48:45 87° E 23:55:13 10° N
Cosmos 371 Rocket 3.3 23:45:17 10° NNW 23:50:05 62° WSW 23:50:25 60° SW
SeaSat 1 4.3 23:47:53 10° ENE 23:51:08 17° ESE 23:51:20 17° ESE
Helios 1B rocket 3.0 23:51:30 10° NNE 23:55:23 46° E 23:55:23 46° E
